Location: Fontevrault
(47.1823°N, 0.0493°E)
Time: 18:21:50
(UTC+00:00)

Cosmos 1725 Rocket - Pass Details

Date: 31 October 2021
Orbit: 961 x 991 km, 82.9° (Epoch: 27 November)

Event Time Altitude Azimuth Distance (km) Brightness Sun altitude
Rises 05:11:51 0° 357° (N) 3,659 6.9 -15.7°
Reaches altitude 10° 05:14:41 10° 8° (N) 2,709 6.4 -15.2°
Maximum altitude 05:20:09 32° 70° (ENE) 1,605 5.8 -14.3°
Drops below altitude 10° 05:25:35 10° 132° (SE) 2,704 7.2 -13.4°
Sets 05:28:23 0° 142° (SE) 3,650 7.7 -12.9°
